Weather History for KOGD - April, 2014

Change the Weather History Date:

Monday, April 7, 2014

  Actual Average Record
Temperature  
Mean Temperature 47 °F -  
Max Temperature 59 °F 60 °F 82 °F (1930)
Min Temperature 37 °F 36 °F 16 °F (1948)
Degree Days  
Heating Degree Days 18    
Moisture  
Dew Point 31 °F    
Average Humidity 51    
Maximum Humidity 73    
Minimum Humidity 36    
Precipitation  
Precipitation 0.00 in - - ()
Sea Level Pressure  
Sea Level Pressure 30.24 in    
Wind  
Wind Speed 8 mph (SW)    
Max Wind Speed 13 mph    
Max Gust Speed 21 mph    
Visibility 10 miles    
Events      
Averages and records for this station are not official NWS values.
T = Trace of Precipitation, MM = Missing Value Source: NWS Daily Summary

Daily Weather History Graph

Daily Weather History Graph

Search for Another Location

Airport or City:

Trip Planner

Search our weather history database for the weather conditions in past years. The results will help you decide how hot, cold, wet, or windy it might be!

Date:

Astronomy

Apr. 07, 2014 Rise Set
Actual Time 7:01 AM MDT 7:59 PM MDT
Civil Twilight 6:33 AM MDT 8:27 PM MDT
Nautical Twilight 5:59 AM MDT 9:01 PM MDT
Astronomical Twilight 5:24 AM MDT 9:36 PM MDT
Moon 12:59 PM MDT (4/7) 2:40 AM MDT (4/7)
Length of Visible Light 13h 54m
Length of Day
12h 58m
First Quarter, 54% of the Moon is Illuminated
Apr 7
First Quarter
Apr 15
Full
Apr 22
Last Quarter
Apr 29
New
May 6
First Quarter

Hourly Weather History & Observations

Time (MDT) Temp. Windchill Dew Point Humidity Pressure Visibility Wind Dir Wind Speed Gust Speed Precip Events Conditions
12:53 AM 46.0 °F 41.0 °F 30.0 °F 54% 30.15 in 10.0 mi NW 10.4 mph - N/A   Clear
1:53 AM 45.0 °F 40.6 °F 30.0 °F 56% 30.17 in 10.0 mi West 8.1 mph - N/A   Clear
2:53 AM 43.0 °F 38.2 °F 30.0 °F 60% 30.17 in 10.0 mi WNW 8.1 mph - N/A   Clear
3:53 AM 42.1 °F 37.1 °F 30.0 °F 62% 30.19 in 10.0 mi NW 8.1 mph - N/A   Clear
4:53 AM 42.1 °F 38.4 °F 30.0 °F 62% 30.19 in 10.0 mi NE 5.8 mph - N/A   Clear
5:53 AM 39.9 °F 36.7 °F 30.0 °F 68% 30.22 in 10.0 mi SSW 4.6 mph - N/A   Clear
6:53 AM 37.0 °F 29.8 °F 28.9 °F 73% 30.25 in 10.0 mi South 10.4 mph - N/A   Clear
7:53 AM 39.0 °F 33.4 °F 28.9 °F 67% 30.27 in 10.0 mi South 8.1 mph - N/A   Clear
8:53 AM 44.1 °F 40.1 °F 30.9 °F 60% 30.28 in 10.0 mi South 6.9 mph - N/A   Clear
10:53 AM 51.1 °F - 30.0 °F 44% 30.29 in 10.0 mi West 6.9 mph - N/A   Clear
11:53 AM 53.1 °F - 30.9 °F 43% 30.29 in 10.0 mi Variable 5.8 mph - N/A   Clear
12:53 PM 55.9 °F - 30.9 °F 39% 30.27 in 10.0 mi WNW 12.7 mph 20.7 mph N/A   Partly Cloudy
2:53 PM 57.9 °F - 32.0 °F 37% 30.26 in 10.0 mi North - - N/A   Partly Cloudy
3:53 PM 57.0 °F - 32.0 °F 39% 30.25 in 10.0 mi West 6.9 mph - N/A   Clear
4:53 PM 57.0 °F - 30.9 °F 37% 30.25 in 10.0 mi SW 9.2 mph - N/A   Clear
5:53 PM 57.9 °F - 30.9 °F 36% 30.25 in 10.0 mi WNW 5.8 mph - N/A   Clear
6:53 PM 57.0 °F - 30.9 °F 37% 30.26 in 10.0 mi Calm Calm - N/A   Clear
7:53 PM 54.0 °F - 32.0 °F 43% 30.25 in 10.0 mi SSW 4.6 mph - N/A   Clear
8:53 PM 52.0 °F - 32.0 °F 47% 30.25 in 10.0 mi South 3.5 mph - N/A   Clear
9:53 PM 48.9 °F - 33.1 °F 54% 30.26 in 10.0 mi SSE 3.5 mph - N/A   Clear
11:53 PM 46.9 °F - 32.0 °F 56% 30.24 in 10.0 mi SSE 9.2 mph - N/A   Clear